Darstellungsparameter: Aktuell verwendete Einstellungen:
Skalierung der Graphiken ... ?
xyx+y,   Skalierungsfaktor:      Skalierung: Modus: x, Faktor: 1
Darstellungszeitraum ... ?
Vom - - bis: - -   Zeitraum: 05.08.2019 - 05.08.2019
Min/Max/Avg-Anzeige ... ?
Zeige MMA aktuell
Zeige MMA Monat
Zeige MMA alles
Zeige --A aktuell
Zeige --A Monat
Zeige --A alles
Keine MMA-Anzeige
MMA:
Keine MMA-Graphiken
MMA-Basis: 05.08.2019 - 05.08.2019
Quicknavigation für Darstellung... ?
Tage:      1T, 2T, 3T, 5T -1T -2T -3T -5T +1T +2T +3T +5T
Wochen: 1W, 2W, 3W -1W -2W -3W +1W +2W +3W
Monate: 1M, 3M, 6M -1M -3M -6M +1M +3M +6M
Jahre:    1J, 3J, 5J, 10J -1J -3J -5J -10J +1J +3J +5J +10J
Nutze für die Darstellung ... ?
Originaldaten oder Mittelwerte auf ...
Stundenbasis Tagesbasis Wochenbasis
Monatsbasis Jahresbasis      Datenbasis: Original-Daten
Darstellen als:
Statistik (Auto) Statistik J:M      Darstellung:
Zur Graphik,    zurück zur Übersicht aller Sensoren.
 
Tabellarische Datenbersicht: ?
 
Sensor: Nr:Datum:Temp:Feuchte:Taupunkt:
Aussen-T/F 1 05-08-2019 00:00:00 22.8 C 59 % 14.37 C
2 05-08-2019 00:05:00 22.9 C 58 % 14.2 C
3 05-08-2019 00:10:00 22.9 C 57 % 13.93 C
4 05-08-2019 00:15:00 22.9 C 58 % 14.2 C
5 05-08-2019 00:20:00 23 C 57 % 14.03 C
6 05-08-2019 00:25:00 23 C 58 % 14.29 C
7 05-08-2019 00:30:00 22.9 C 57 % 13.93 C
8 05-08-2019 00:35:00 22.9 C 56 % 13.66 C
9 05-08-2019 00:40:00 22.9 C 57 % 13.93 C
10 05-08-2019 00:45:00 22.8 C 59 % 14.37 C
11 05-08-2019 00:50:00 22.8 C 58 % 14.11 C
12 05-08-2019 00:55:00 22.7 C 60 % 14.54 C
13 05-08-2019 01:00:00 22.6 C 60 % 14.44 C
14 05-08-2019 01:05:00 22.3 C 61 % 14.42 C
15 05-08-2019 01:10:00 22.1 C 61 % 14.23 C
16 05-08-2019 01:15:00 21.9 C 62 % 14.29 C
17 05-08-2019 01:20:00 21.8 C 62 % 14.2 C
18 05-08-2019 01:25:00 21.7 C 62 % 14.1 C
19 05-08-2019 01:30:00 21.6 C 63 % 14.26 C
20 05-08-2019 01:35:00 21.4 C 63 % 14.07 C
21 05-08-2019 01:40:00 21.3 C 63 % 13.97 C
22 05-08-2019 01:45:00 21.2 C 64 % 14.12 C
23 05-08-2019 01:50:00 21.1 C 64 % 14.03 C
24 05-08-2019 01:55:00 20.9 C 64 % 13.84 C
25 05-08-2019 02:00:00 20.8 C 64 % 13.74 C
Sensor: Nr:Datum:Temp:Feuchte:Taupunkt:
Aussen-T/F 26 05-08-2019 02:05:00 20.7 C 65 % 13.89 C
27 05-08-2019 02:10:00 20.6 C 66 % 14.03 C
28 05-08-2019 02:15:00 20.4 C 66 % 13.84 C
29 05-08-2019 02:20:00 20.3 C 67 % 13.97 C
30 05-08-2019 02:25:00 20.3 C 67 % 13.97 C
31 05-08-2019 02:30:00 20.2 C 67 % 13.88 C
32 05-08-2019 02:35:00 20.2 C 68 % 14.11 C
33 05-08-2019 02:40:00 20.1 C 68 % 14.01 C
34 05-08-2019 02:45:00 20 C 68 % 13.92 C
35 05-08-2019 02:50:00 19.9 C 68 % 13.82 C
36 05-08-2019 02:55:00 19.9 C 68 % 13.82 C
37 05-08-2019 03:00:00 19.8 C 68 % 13.73 C
38 05-08-2019 03:05:00 19.8 C 69 % 13.95 C
39 05-08-2019 03:10:00 19.8 C 69 % 13.95 C
40 05-08-2019 03:15:00 19.7 C 69 % 13.86 C
41 05-08-2019 03:20:00 19.7 C 70 % 14.08 C
42 05-08-2019 03:25:00 19.6 C 69 % 13.76 C
43 05-08-2019 03:30:00 19.6 C 70 % 13.98 C
44 05-08-2019 03:35:00 19.5 C 70 % 13.89 C
45 05-08-2019 03:40:00 19.4 C 70 % 13.79 C
46 05-08-2019 03:45:00 19.4 C 71 % 14.01 C
47 05-08-2019 03:50:00 19.4 C 70 % 13.79 C
48 05-08-2019 03:55:00 19.5 C 71 % 14.1 C
49 05-08-2019 04:00:00 19.6 C 73 % 14.63 C
50 05-08-2019 04:05:00 19.6 C 74 % 14.84 C
Sensor: Nr:Datum:Temp:Feuchte:Taupunkt:
Aussen-T/F 51 05-08-2019 04:10:00 19.6 C 76 % 15.26 C
52 05-08-2019 04:15:00 19.5 C 76 % 15.16 C
53 05-08-2019 04:20:00 19.3 C 76 % 14.97 C
54 05-08-2019 04:25:00 19.3 C 75 % 14.76 C
55 05-08-2019 04:30:00 19.2 C 77 % 15.07 C
56 05-08-2019 04:35:00 19.2 C 77 % 15.07 C
57 05-08-2019 04:40:00 19.1 C 76 % 14.77 C
58 05-08-2019 04:45:00 19.1 C 76 % 14.77 C
59 05-08-2019 04:50:00 19.1 C 76 % 14.77 C
60 05-08-2019 04:55:00 19.2 C 77 % 15.07 C
61 05-08-2019 05:00:00 19.3 C 78 % 15.37 C
62 05-08-2019 05:05:00 19.3 C 78 % 15.37 C
63 05-08-2019 05:10:00 19.3 C 77 % 15.17 C
64 05-08-2019 05:15:00 19.3 C 77 % 15.17 C
65 05-08-2019 05:20:00 19.3 C 77 % 15.17 C
66 05-08-2019 05:25:00 19.3 C 77 % 15.17 C
67 05-08-2019 05:30:00 19.2 C 76 % 14.87 C
68 05-08-2019 05:35:00 19.3 C 76 % 14.97 C
69 05-08-2019 05:40:00 19.4 C 77 % 15.27 C
70 05-08-2019 05:45:00 19.5 C 80 % 15.96 C
71 05-08-2019 05:50:00 19.4 C 81 % 16.06 C
72 05-08-2019 05:55:00 19.3 C 82 % 16.15 C
73 05-08-2019 06:00:00 19.1 C 83 % 16.15 C
74 05-08-2019 06:05:00 18.8 C 84 % 16.04 C
75 05-08-2019 06:10:00 18.6 C 85 % 16.03 C
Sensor: Nr:Datum:Temp:Feuchte:Taupunkt:
Aussen-T/F 76 05-08-2019 06:15:00 18.4 C 86 % 16.02 C
77 05-08-2019 06:20:00 18.3 C 86 % 15.92 C
78 05-08-2019 06:25:00 18.2 C 87 % 16 C
79 05-08-2019 06:30:00 18.2 C 88 % 16.18 C
80 05-08-2019 06:35:00 18.1 C 89 % 16.26 C
81 05-08-2019 06:40:00 18.1 C 89 % 16.26 C
82 05-08-2019 06:45:00 17.9 C 90 % 16.24 C
83 05-08-2019 06:50:00 17.9 C 90 % 16.24 C
84 05-08-2019 06:55:00 17.8 C 91 % 16.31 C
85 05-08-2019 07:00:00 17.8 C 91 % 16.31 C
86 05-08-2019 07:05:00 17.7 C 91 % 16.21 C
87 05-08-2019 07:10:00 17.7 C 92 % 16.38 C
88 05-08-2019 07:15:00 17.6 C 92 % 16.28 C
89 05-08-2019 07:20:00 17.6 C 92 % 16.28 C
90 05-08-2019 07:25:00 17.6 C 92 % 16.28 C
91 05-08-2019 07:30:00 17.6 C 93 % 16.45 C
92 05-08-2019 07:35:00 17.5 C 93 % 16.36 C
93 05-08-2019 07:40:00 17.4 C 93 % 16.26 C
94 05-08-2019 07:45:00 17.3 C 93 % 16.16 C
95 05-08-2019 07:50:00 17.3 C 93 % 16.16 C
96 05-08-2019 07:55:00 17.3 C 93 % 16.16 C
97 05-08-2019 08:00:00 17.3 C 94 % 16.33 C
98 05-08-2019 08:05:00 17.3 C 94 % 16.33 C
99 05-08-2019 08:10:00 17.4 C 94 % 16.42 C
100 05-08-2019 08:15:00 17.4 C 94 % 16.42 C
Sensor: Nr:Datum:Temp:Feuchte:Taupunkt:
Aussen-T/F 101 05-08-2019 08:20:00 17.6 C 94 % 16.62 C
102 05-08-2019 08:25:00 17.6 C 94 % 16.62 C
103 05-08-2019 08:30:00 17.6 C 95 % 16.79 C
104 05-08-2019 08:35:00 17.8 C 95 % 16.99 C
105 05-08-2019 08:40:00 17.8 C 95 % 16.99 C
106 05-08-2019 08:45:00 17.9 C 95 % 17.09 C
107 05-08-2019 08:50:00 17.9 C 95 % 17.09 C
108 05-08-2019 08:55:00 18.1 C 95 % 17.29 C
109 05-08-2019 09:00:00 18.1 C 95 % 17.29 C
110 05-08-2019 09:05:00 18.2 C 95 % 17.39 C
111 05-08-2019 09:10:00 18.3 C 95 % 17.48 C
112 05-08-2019 09:15:00 18.5 C 95 % 17.68 C
113 05-08-2019 09:20:00 18.7 C 96 % 18.05 C
114 05-08-2019 09:25:00 18.8 C 95 % 17.98 C
115 05-08-2019 09:30:00 18.8 C 95 % 17.98 C
116 05-08-2019 09:35:00 18.9 C 95 % 18.08 C
117 05-08-2019 09:40:00 19.1 C 95 % 18.28 C
118 05-08-2019 09:45:00 19.2 C 95 % 18.38 C
119 05-08-2019 09:50:00 19.2 C 94 % 18.21 C
120 05-08-2019 09:55:00 19.2 C 94 % 18.21 C
121 05-08-2019 10:00:00 19.4 C 94 % 18.41 C
122 05-08-2019 10:05:00 19.6 C 94 % 18.61 C
123 05-08-2019 10:10:00 19.7 C 94 % 18.71 C
124 05-08-2019 10:15:00 19.8 C 93 % 18.63 C
125 05-08-2019 10:20:00 19.9 C 94 % 18.91 C
Sensor: Nr:Datum:Temp:Feuchte:Taupunkt:
Aussen-T/F 126 05-08-2019 10:25:00 20.1 C 94 % 19.1 C
127 05-08-2019 10:30:00 20.4 C 94 % 19.4 C
128 05-08-2019 10:35:00 20.4 C 93 % 19.23 C
129 05-08-2019 10:40:00 20.3 C 91 % 18.78 C
130 05-08-2019 10:45:00 20.4 C 91 % 18.88 C
131 05-08-2019 10:50:00 20.4 C 89 % 18.53 C
132 05-08-2019 10:55:00 20.6 C 90 % 18.9 C
133 05-08-2019 11:00:00 20.8 C 89 % 18.92 C
134 05-08-2019 11:05:00 21.1 C 87 % 18.85 C
135 05-08-2019 11:10:00 21.4 C 88 % 19.33 C
136 05-08-2019 11:15:00 21.7 C 87 % 19.44 C
137 05-08-2019 11:20:00 21.8 C 85 % 19.16 C
138 05-08-2019 11:25:00 21.8 C 84 % 18.97 C
139 05-08-2019 11:30:00 22.1 C 83 % 19.08 C
140 05-08-2019 11:35:00 22.3 C 83 % 19.27 C
141 05-08-2019 11:40:00 22.4 C 80 % 18.78 C
142 05-08-2019 11:45:00 22.6 C 80 % 18.97 C
143 05-08-2019 11:50:00 22.8 C 81 % 19.37 C
144 05-08-2019 11:55:00 23.1 C 82 % 19.86 C
145 05-08-2019 12:00:00 23.3 C 79 % 19.45 C
146 05-08-2019 12:05:00 23.4 C 75 % 18.71 C
147 05-08-2019 12:10:00 23.6 C 74 % 18.69 C
148 05-08-2019 12:15:00 23.7 C 73 % 18.57 C
149 05-08-2019 12:20:00 23.9 C 69 % 17.87 C
150 05-08-2019 12:25:00 24.1 C 68 % 17.82 C
Sensor: Nr:Datum:Temp:Feuchte:Taupunkt:
Aussen-T/F 151 05-08-2019 12:30:00 24.3 C 68 % 18.01 C
152 05-08-2019 12:35:00 24.6 C 65 % 17.58 C
153 05-08-2019 12:40:00 24.8 C 63 % 17.28 C
154 05-08-2019 12:45:00 24.9 C 65 % 17.87 C
155 05-08-2019 12:50:00 25.2 C 63 % 17.65 C
156 05-08-2019 12:55:00 25.2 C 63 % 17.65 C
157 05-08-2019 13:00:00 25.2 C 64 % 17.9 C
158 05-08-2019 13:05:00 25.3 C 62 % 17.5 C
159 05-08-2019 13:10:00 25.5 C 61 % 17.43 C
160 05-08-2019 13:15:00 25.7 C 62 % 17.87 C
161 05-08-2019 13:20:00 25.8 C 61 % 17.71 C
162 05-08-2019 13:25:00 25.9 C 61 % 17.8 C
163 05-08-2019 13:30:00 26.2 C 59 % 17.55 C
164 05-08-2019 13:35:00 26.3 C 59 % 17.65 C
165 05-08-2019 13:40:00 26.4 C 56 % 16.92 C
166 05-08-2019 13:45:00 26.5 C 58 % 17.56 C
167 05-08-2019 13:50:00 26.6 C 57 % 17.38 C
168 05-08-2019 13:55:00 26.6 C 57 % 17.38 C
169 05-08-2019 14:00:00 26.6 C 58 % 17.66 C
170 05-08-2019 14:05:00 26.6 C 57 % 17.38 C
171 05-08-2019 14:10:00 26.7 C 56 % 17.19 C
172 05-08-2019 14:15:00 26.8 C 56 % 17.29 C
173 05-08-2019 14:20:00 27.1 C 55 % 17.28 C
174 05-08-2019 14:25:00 27.3 C 54 % 17.18 C
175 05-08-2019 14:30:00 27.3 C 53 % 16.88 C
Sensor: Nr:Datum:Temp:Feuchte:Taupunkt:
Aussen-T/F 176 05-08-2019 14:35:00 27.3 C 55 % 17.47 C
177 05-08-2019 14:40:00 27.3 C 53 % 16.88 C
178 05-08-2019 14:45:00 27.3 C 53 % 16.88 C
179 05-08-2019 14:50:00 27.4 C 54 % 17.27 C
180 05-08-2019 14:55:00 27.7 C 52 % 16.95 C
181 05-08-2019 15:00:00 27.8 C 47 % 15.45 C
182 05-08-2019 15:05:00 27.9 C 50 % 16.51 C
183 05-08-2019 15:10:00 28 C 50 % 16.61 C
184 05-08-2019 15:15:00 28.4 C 50 % 16.97 C
185 05-08-2019 15:20:00 28.4 C 48 % 16.33 C
186 05-08-2019 15:25:00 28.4 C 45 % 15.32 C
187 05-08-2019 15:30:00 28.5 C 46 % 15.75 C
188 05-08-2019 15:35:00 28.3 C 45 % 15.23 C
189 05-08-2019 15:40:00 28.4 C 45 % 15.32 C
190 05-08-2019 15:45:00 28.7 C 44 % 15.24 C
191 05-08-2019 15:50:00 28.8 C 44 % 15.33 C
192 05-08-2019 15:55:00 28.9 C 44 % 15.42 C
193 05-08-2019 16:00:00 28.9 C 41 % 14.33 C
194 05-08-2019 16:05:00 28.9 C 42 % 14.7 C
195 05-08-2019 16:10:00 29 C 42 % 14.79 C
196 05-08-2019 16:15:00 29.1 C 41 % 14.51 C
197 05-08-2019 16:20:00 29.1 C 41 % 14.51 C
198 05-08-2019 16:25:00 29.1 C 41 % 14.51 C
199 05-08-2019 16:30:00 29.1 C 41 % 14.51 C
200 05-08-2019 16:35:00 28.9 C 41 % 14.33 C
Sensor: Nr:Datum:Temp:Feuchte:Taupunkt:
Aussen-T/F 201 05-08-2019 16:40:00 28.8 C 41 % 14.24 C
202 05-08-2019 16:45:00 28.7 C 41 % 14.15 C
203 05-08-2019 16:50:00 28.5 C 42 % 14.34 C
204 05-08-2019 16:55:00 28.4 C 42 % 14.25 C
205 05-08-2019 17:00:00 28.3 C 42 % 14.16 C
206 05-08-2019 17:05:00 28.3 C 43 % 14.53 C
207 05-08-2019 17:10:00 28.3 C 42 % 14.16 C
208 05-08-2019 17:15:00 28.3 C 42 % 14.16 C
209 05-08-2019 17:20:00 28.3 C 42 % 14.16 C
210 05-08-2019 17:25:00 28.3 C 41 % 13.79 C
211 05-08-2019 17:30:00 28.3 C 42 % 14.16 C
212 05-08-2019 17:35:00 28.3 C 42 % 14.16 C
213 05-08-2019 17:40:00 28.2 C 42 % 14.07 C
214 05-08-2019 17:45:00 28.1 C 42 % 13.98 C
215 05-08-2019 17:50:00 28 C 43 % 14.26 C
216 05-08-2019 17:55:00 28 C 42 % 13.89 C
217 05-08-2019 18:00:00 28.1 C 43 % 14.35 C
218 05-08-2019 18:05:00 28.2 C 42 % 14.07 C
219 05-08-2019 18:10:00 28.1 C 42 % 13.98 C
220 05-08-2019 18:15:00 27.9 C 40 % 13.05 C
221 05-08-2019 18:20:00 27.8 C 42 % 13.71 C
222 05-08-2019 18:25:00 27.7 C 41 % 13.25 C
223 05-08-2019 18:30:00 27.5 C 42 % 13.44 C
224 05-08-2019 18:35:00 27.4 C 43 % 13.72 C
225 05-08-2019 18:40:00 27.5 C 43 % 13.81 C
Sensor: Nr:Datum:Temp:Feuchte:Taupunkt:
Aussen-T/F 226 05-08-2019 18:45:00 27.5 C 43 % 13.81 C
227 05-08-2019 18:50:00 27.4 C 42 % 13.35 C
228 05-08-2019 18:55:00 27.3 C 43 % 13.63 C
229 05-08-2019 19:00:00 27.2 C 44 % 13.89 C
230 05-08-2019 19:05:00 27.1 C 44 % 13.8 C
231 05-08-2019 19:10:00 27.1 C 44 % 13.8 C
232 05-08-2019 19:15:00 26.9 C 45 % 13.96 C
233 05-08-2019 19:20:00 26.8 C 45 % 13.87 C
234 05-08-2019 19:25:00 26.8 C 46 % 14.21 C
235 05-08-2019 19:30:00 26.7 C 46 % 14.12 C
236 05-08-2019 19:35:00 26.6 C 47 % 14.36 C
237 05-08-2019 19:40:00 26.4 C 48 % 14.51 C
238 05-08-2019 19:45:00 26.3 C 48 % 14.42 C
239 05-08-2019 19:50:00 26.3 C 49 % 14.74 C
240 05-08-2019 19:55:00 26.2 C 51 % 15.27 C
241 05-08-2019 20:00:00 26.1 C 47 % 13.91 C
242 05-08-2019 20:05:00 26 C 48 % 14.14 C
243 05-08-2019 20:10:00 25.9 C 45 % 13.06 C
244 05-08-2019 20:15:00 25.8 C 48 % 13.96 C
245 05-08-2019 20:20:00 25.7 C 53 % 15.4 C
246 05-08-2019 20:25:00 25.5 C 55 % 15.8 C
247 05-08-2019 20:30:00 25.2 C 57 % 16.08 C
248 05-08-2019 20:35:00 24.9 C 58 % 16.07 C
249 05-08-2019 20:40:00 24.6 C 59 % 16.06 C
250 05-08-2019 20:45:00 24.2 C 59 % 15.68 C
Sensor: Nr:Datum:Temp:Feuchte:Taupunkt:
Aussen-T/F 251 05-08-2019 20:50:00 23.8 C 57 % 14.77 C
252 05-08-2019 20:55:00 23.5 C 57 % 14.49 C
253 05-08-2019 21:00:00 23.3 C 58 % 14.58 C
254 05-08-2019 21:05:00 23 C 58 % 14.29 C
255 05-08-2019 21:10:00 22.7 C 59 % 14.28 C
256 05-08-2019 21:15:00 22.4 C 61 % 14.51 C
257 05-08-2019 21:20:00 22.2 C 62 % 14.58 C
258 05-08-2019 21:25:00 22 C 61 % 14.14 C
259 05-08-2019 21:30:00 21.8 C 62 % 14.2 C
260 05-08-2019 21:35:00 21.7 C 62 % 14.1 C
261 05-08-2019 21:40:00 21.6 C 62 % 14.01 C
262 05-08-2019 21:45:00 21.5 C 62 % 13.92 C
263 05-08-2019 21:50:00 21.4 C 63 % 14.07 C
264 05-08-2019 21:55:00 21.3 C 64 % 14.22 C
265 05-08-2019 22:00:00 21.2 C 64 % 14.12 C
266 05-08-2019 22:05:00 21.1 C 66 % 14.5 C
267 05-08-2019 22:10:00 21 C 66 % 14.41 C
268 05-08-2019 22:15:00 20.8 C 68 % 14.68 C
269 05-08-2019 22:20:00 20.7 C 69 % 14.81 C
270 05-08-2019 22:25:00 20.6 C 70 % 14.94 C
271 05-08-2019 22:30:00 20.4 C 71 % 14.97 C
272 05-08-2019 22:35:00 20.3 C 71 % 14.87 C
273 05-08-2019 22:40:00 20.2 C 71 % 14.78 C
274 05-08-2019 22:45:00 20.1 C 72 % 14.9 C
275 05-08-2019 22:50:00 20 C 71 % 14.58 C
Sensor: Nr:Datum:Temp:Feuchte:Taupunkt:
Aussen-T/F 276 05-08-2019 22:55:00 20 C 73 % 15.01 C
277 05-08-2019 23:00:00 19.9 C 73 % 14.92 C
278 05-08-2019 23:05:00 19.8 C 72 % 14.61 C
279 05-08-2019 23:10:00 19.8 C 73 % 14.82 C
280 05-08-2019 23:15:00 19.7 C 73 % 14.73 C
281 05-08-2019 23:20:00 19.6 C 74 % 14.84 C
282 05-08-2019 23:25:00 19.4 C 74 % 14.65 C
283 05-08-2019 23:30:00 19.3 C 74 % 14.55 C
284 05-08-2019 23:35:00 19.1 C 74 % 14.36 C
285 05-08-2019 23:40:00 18.9 C 75 % 14.37 C
286 05-08-2019 23:45:00 18.8 C 75 % 14.28 C
287 05-08-2019 23:50:00 18.6 C 76 % 14.29 C
288 05-08-2019 23:55:00 18.5 C 75 % 13.99 C

Legende:
   Min
   Max


Maximal/Minimal-Werte vom 05.08.2019 - 05.08.2019

Sensor Min Max Avg
Temp
(Aussen-T/F)
17.3 °C
05-08-2019  07:45:00
29.1 °C
05-08-2019  16:15:00
22.57 °C
Feuchte
(Aussen-T/F)
40 %
05-08-2019  18:15:00
96 %
05-08-2019  09:20:00
67.33 %
Taupunkt
(Aussen-T/F)
13.05 C
05-08-2019  18:15:00
19.86 C
05-08-2019  11:55:00
15.57 C

Die Daten stammen von einer Davis Vantage Pro 2 Wetter-Station und werden unter Linux mit der Software wview2wettercgi und aufbereitet. Alle Angaben erfolgen ohne Gewähr für ihre Vollständigkeit oder Richtigkeit.
Kontakt: Rainer Krienke krienke@uni-koblenz.de . Meine Webseiten an der Uni Koblenz oder privat.
Version: $Revision: 0.78 $